This demonstration page uses our WeatherBlox Daily Observations layout. Learn more.

Left ArrowRight Arrow

Hourly Observations for June 29, 2017

Temp ( °F °C ) Dew Point ( °F °C ) Humidity (%) Winds ( mph kmh ) Pressure ( in mb ) Visibility ( mi km ) Precip ( " mm )
12:07 am 00:07 Clear 70 21 55 13 60 60 S 10 17 29.97 1015 10 16 N/A
12:28 am 00:28 Clear 70 21 55 13 60 60 S 8 13 29.97 1015 10 16 N/A
12:47 am 00:47 Clear 70 21 55 13 60 60 S 8 13 29.97 1015 10 16 N/A
1:07 am 01:07 Clear 68 20 55 13 64 64 S 9 15 30.00 1016 10 16 N/A
1:27 am 01:27 Clear 68 20 55 13 64 64 S 10 17 30.00 1016 10 16 N/A
1:47 am 01:47 Clear 68 20 55 13 64 64 S 10 17 30.00 1016 10 16 N/A
2:07 am 02:07 Clear 68 20 55 13 64 64 S 10 17 30.00 1016 10 16 N/A
2:27 am 02:27 Clear 68 20 55 13 64 64 S 10 17 29.97 1015 10 16 N/A
2:47 am 02:47 Clear 68 20 55 13 64 64 SSW 9 15 29.97 1015 10 16 N/A
3:07 am 03:07 Clear 68 20 55 13 64 64 S 10 17 29.97 1015 10 16 N/A
3:27 am 03:27 Clear 68 20 55 13 64 64 S 10 17 29.97 1015 10 16 N/A
3:47 am 03:47 Clear 66 19 55 13 68 68 S 9 15 29.97 1015 10 16 N/A
4:07 am 04:07 Clear 66 19 55 13 68 68 S 8 13 29.97 1015 10 16 N/A
4:27 am 04:27 Partly Cloudy 66 19 55 13 68 68 S 8 13 29.97 1015 10 16 N/A
4:47 am 04:47 Partly Cloudy 66 19 57 14 73 73 SSW 8 13 29.97 1015 10 16 N/A
5:07 am 05:07 Partly Cloudy 66 19 57 14 73 73 S 10 17 29.97 1015 10 16 N/A
5:27 am 05:27 Clear 66 19 57 14 73 73 S 8 13 29.97 1015 10 16 N/A
5:48 am 05:48 Clear 66 19 57 14 73 73 S 8 13 29.97 1015 10 16 N/A
6:07 am 06:07 Clear 66 19 57 14 73 73 S 8 13 29.97 1015 10 16 N/A
6:27 am 06:27 Sunny 64 18 57 14 78 78 S 8 13 29.97 1015 10 16 N/A
6:47 am 06:47 Sunny 66 19 57 14 73 73 S 12 19 29.97 1015 10 16 N/A
7:08 am 07:08 Sunny 66 19 59 15 78 78 S 9 15 29.97 1015 10 16 N/A
7:27 am 07:27 Sunny 68 20 59 15 73 73 SSW 9 15 29.94 1014 10 16 N/A
7:47 am 07:47 Sunny 68 20 59 15 73 73 SSW 10 17 29.94 1014 10 16 N/A
8:08 am 08:08 Sunny 70 21 61 16 73 73 S 10 17 29.91 1013 10 16 N/A
8:27 am 08:27 Sunny 70 21 61 16 73 73 S 12 19 29.91 1013 10 16 N/A
8:47 am 08:47 Sunny 72 22 61 16 69 69 S 12 19 29.88 1012 10 16 N/A
9:07 am 09:07 Sunny 72 22 63 17 73 73 S 16 26 29.88 1012 10 16 N/A
9:27 am 09:27 Sunny 75 24 63 17 65 65 SSW 13 20 29.88 1012 10 16 N/A
9:47 am 09:47 Sunny 77 25 63 17 61 61 SSW 17 28 29.88 1012 10 16 N/A
10:07 am 10:07 Sunny 79 26 64 18 61 61 SW 17 28 29.91 1013 10 16 N/A
10:27 am 10:27 Sunny 77 25 64 18 65 65 WSW 18 30 29.91 1013 10 16 N/A
10:47 am 10:47 Sunny 79 26 64 18 61 61 SW 16 26 29.91 1013 10 16 N/A
11:07 am 11:07 Sunny 81 27 64 18 58 58 SW 15 24 29.91 1013 10 16 N/A
11:28 am 11:28 Partly Cloudy 81 27 64 18 58 58 SW 17 28 29.94 1014 10 16 N/A
11:47 am 11:47 Mostly Cloudy 81 27 64 18 58 58 W 17 28 29.94 1014 10 16 N/A
12:07 pm 12:07 Cloudy 81 27 66 19 62 62 WSW 13 20 29.94 1014 10 16 N/A
12:27 pm 12:27 Mostly Cloudy 81 27 66 19 62 62 SW 14 22 29.94 1014 10 16 N/A
12:47 pm 12:47 Partly Cloudy 82 28 66 19 58 58 SW 18 30 29.91 1013 10 16 N/A
1:08 pm 13:08 Sunny 82 28 66 19 58 58 SW 21 33 29.91 1013 10 16 N/A
1:27 pm 13:27 Sunny 82 28 66 19 58 58 SW 17 28 29.91 1013 10 16 N/A
1:47 pm 13:47 Sunny 84 29 66 19 55 55 SW 14 22 29.91 1013 10 16 N/A
2:08 pm 14:08 Sunny 84 29 66 19 55 55 SW 18 30 29.91 1013 10 16 N/A
2:27 pm 14:27 Sunny 84 29 66 19 55 55 SSW 17 28 29.91 1013 10 16 N/A
2:47 pm 14:47 Partly Cloudy 86 30 66 19 52 52 SW 17 28 29.88 1012 10 16 N/A
3:07 pm 15:07 Partly Cloudy 84 29 64 18 51 51 SW 18 30 29.91 1013 10 16 N/A
3:27 pm 15:27 Sunny 86 30 64 18 49 49 SW 20 31 29.88 1012 10 16 N/A
3:47 pm 15:47 Sunny 86 30 66 19 52 52 SW 13 20 29.88 1012 10 16 N/A
4:07 pm 16:07 Partly Cloudy 86 30 66 19 52 52 SW 16 26 29.88 1012 10 16 N/A
4:27 pm 16:27 Partly Cloudy 86 30 66 19 52 52 SW 17 28 29.88 1012 10 16 N/A
4:47 pm 16:47 Partly Cloudy 86 30 66 19 52 52 WSW 17 28 29.88 1012 10 16 N/A
5:07 pm 17:07 Partly Cloudy 86 30 66 19 52 52 SSW 16 26 29.88 1012 10 16 N/A
5:27 pm 17:27 Partly Cloudy 86 30 66 19 52 52 SW 13 20 29.88 1012 10 16 N/A
5:47 pm 17:47 Partly Cloudy 86 30 66 19 52 52 SSW 13 20 29.88 1012 10 16 N/A
6:07 pm 18:07 Mostly Cloudy 86 30 64 18 49 49 SW 16 26 29.85 1011 10 16 N/A
6:27 pm 18:27 Mostly Cloudy 88 31 66 19 49 49 WSW 14 22 29.85 1011 10 16 N/A
6:48 pm 18:48 Mostly Cloudy 86 30 68 20 55 55 SSW 13 20 29.85 1011 10 16 N/A
7:07 pm 19:07 Mostly Cloudy 84 29 68 20 58 58 SSW 14 22 29.88 1012 10 16 N/A
7:27 pm 19:27 Partly Cloudy 84 29 66 19 55 55 SW 13 20 29.88 1012 10 16 N/A
7:47 pm 19:47 Partly Cloudy 84 29 66 19 55 55 SSW 12 19 29.88 1012 10 16 N/A
8:07 pm 20:07 Partly Cloudy 84 29 68 20 58 58 S 16 26 29.85 1011 10 16 N/A
8:27 pm 20:27 Sunny 82 28 68 20 62 62 S 10 17 29.85 1011 10 16 N/A
8:47 pm 20:47 Sunny 82 28 68 20 62 62 S 10 17 29.85 1011 10 16 N/A
9:07 pm 21:07 Sunny 81 27 68 20 66 66 SSW 8 13 29.88 1012 10 16 N/A
9:27 pm 21:27 Clear 81 27 68 20 66 66 SSW 6 9 29.88 1012 10 16 N/A
9:47 pm 21:47 Clear 79 26 68 20 70 70 SSW 5 7 29.88 1012 10 16 N/A
10:08 pm 22:08 Clear 79 26 68 20 70 70 S 5 7 29.88 1012 10 16 N/A
10:27 pm 22:27 Clear 77 25 68 20 74 74 S 5 7 29.88 1012 10 16 N/A
10:47 pm 22:47 Clear 77 25 68 20 74 74 S 5 7 29.88 1012 10 16 N/A
11:07 pm 23:07 Clear 77 25 68 20 74 74 S 6 9 29.88 1012 10 16 N/A
11:27 pm 23:27 Clear 77 25 68 20 74 74 S 7 11 29.88 1012 10 16 N/A
11:48 pm 23:48 Clear 75 24 68 20 78 78 S 9 15 29.88 1012 10 16 N/A

Powered by AerisWeather